Wetterdaten: Samstag, 18.04.2015
Datum Zeit Temp. A. Feuchte A. Luftdruck Regen Wind Richtung Richtung Sonnenschein ET UV Solar Taupunkt Windchill Windben Empfang
18.04.2015 00:00 7,2 C 97 % 1015,9 hPa 0,3 l/m 0,0 km/h (0 Bft) S 186 0 min 0,000 mm 0,0 UV-I 0 W/m 6,8 C 7,2 C 0,0 km/h (0 Bft) 0,00 %
18.04.2015 00:15 7,1 C 97 % 1016,1 hPa 0,0 l/m 0,0 km/h (0 Bft) S-SW 195 0 min 0,000 mm 0,0 UV-I 0 W/m 6,7 C 7,1 C 0,0 km/h (0 Bft) 0,00 %
18.04.2015 00:30 6,8 C 97 % 1016,4 hPa 0,0 l/m 1,8 km/h (1 Bft) SO 125 0 min 0,000 mm 0,0 UV-I 0 W/m 6,4 C 6,8 C 4,0 km/h (1 Bft) 0,00 %
18.04.2015 00:45 6,6 C 97 % 1016,8 hPa 0,3 l/m 0,0 km/h (0 Bft) S 175 0 min 0,000 mm 0,0 UV-I 0 W/m 6,2 C 6,6 C 0,0 km/h (0 Bft) 0,00 %
18.04.2015 01:00 6,5 C 97 % 1016,8 hPa 0,0 l/m 0,0 km/h (0 Bft) S 175 0 min 0,000 mm 0,0 UV-I 0 W/m 6,1 C 6,5 C 0,0 km/h (0 Bft) 0,00 %
18.04.2015 01:15 6,5 C 97 % 1016,9 hPa 0,0 l/m 0,0 km/h (0 Bft) S 175 0 min 0,000 mm 0,0 UV-I 0 W/m 6,1 C 6,5 C 0,0 km/h (0 Bft) 0,00 %
18.04.2015 01:30 6,6 C 97 % 1016,9 hPa 0,0 l/m 0,0 km/h (0 Bft) S 182 0 min 0,000 mm 0,0 UV-I 0 W/m 6,2 C 6,6 C 0,0 km/h (0 Bft) 0,00 %
18.04.2015 01:45 6,6 C 97 % 1017,0 hPa 0,0 l/m 0,0 km/h (0 Bft) S-SW 206 0 min 0,000 mm 0,0 UV-I 0 W/m 6,2 C 6,6 C 0,0 km/h (0 Bft) 0,00 %
18.04.2015 02:00 6,1 C 98 % 1017,0 hPa 0,0 l/m 0,0 km/h (0 Bft) S-SW 210 0 min 0,000 mm 0,0 UV-I 0 W/m 5,8 C 6,1 C 0,0 km/h (0 Bft) 0,00 %
18.04.2015 02:15 5,8 C 95 % 1017,3 hPa 0,0 l/m 0,0 km/h (0 Bft) S-SW 200 0 min 0,000 mm 0,0 UV-I 0 W/m 5,1 C 5,8 C 0,0 km/h (0 Bft) 0,00 %
18.04.2015 02:30 5,7 C 93 % 1017,0 hPa 0,0 l/m 0,0 km/h (0 Bft) S 173 0 min 0,000 mm 0,0 UV-I 0 W/m 4,7 C 5,7 C 0,0 km/h (0 Bft) 0,00 %
18.04.2015 02:45 5,7 C 94 % 1017,5 hPa 0,0 l/m 0,0 km/h (0 Bft) S-SW 196 0 min 0,000 mm 0,0 UV-I 0 W/m 4,8 C 5,7 C 0,0 km/h (0 Bft) 0,00 %
18.04.2015 03:00 5,8 C 95 % 1017,5 hPa 0,0 l/m 0,0 km/h (0 Bft) S-SW 192 0 min 0,000 mm 0,0 UV-I 0 W/m 5,1 C 5,8 C 0,0 km/h (0 Bft) 0,00 %
18.04.2015 03:15 5,8 C 96 % 1017,5 hPa 0,0 l/m 0,0 km/h (0 Bft) S 187 0 min 0,000 mm 0,0 UV-I 0 W/m 5,2 C 5,8 C 0,0 km/h (0 Bft) 0,00 %
18.04.2015 03:30 5,7 C 97 % 1017,7 hPa 0,0 l/m 0,0 km/h (0 Bft) S 185 0 min 0,000 mm 0,0 UV-I 0 W/m 5,3 C 5,7 C 0,0 km/h (0 Bft) 0,00 %
18.04.2015 03:45 5,5 C 98 % 1017,6 hPa 0,0 l/m 0,0 km/h (0 Bft) S-SW 196 0 min 0,000 mm 0,0 UV-I 0 W/m 5,2 C 5,5 C 0,0 km/h (0 Bft) 0,00 %
18.04.2015 04:00 5,5 C 98 % 1017,8 hPa 0,0 l/m 0,0 km/h (0 Bft) S 189 0 min 0,000 mm 0,0 UV-I 0 W/m 5,2 C 5,5 C 0,0 km/h (0 Bft) 0,00 %
18.04.2015 04:15 5,5 C 98 % 1017,9 hPa 0,0 l/m 0,0 km/h (0 Bft) S-SW 194 0 min 0,000 mm 0,0 UV-I 0 W/m 5,2 C 5,5 C 0,0 km/h (0 Bft) 0,00 %
18.04.2015 04:30 5,5 C 98 % 1018,0 hPa 0,0 l/m 0,0 km/h (0 Bft) S 180 0 min 0,000 mm 0,0 UV-I 0 W/m 5,2 C 5,5 C 0,0 km/h (0 Bft) 0,00 %
18.04.2015 04:45 4,9 C 96 % 1018,4 hPa 0,0 l/m 0,0 km/h (0 Bft) W-SW 255 0 min 0,000 mm 0,0 UV-I 0 W/m 4,3 C 4,9 C 0,0 km/h (0 Bft) 0,00 %
18.04.2015 05:00 4,9 C 89 % 1018,3 hPa 0,0 l/m 0,4 km/h (0 Bft) O-NO 71 0 min 0,000 mm 0,0 UV-I 0 W/m 3,2 C 4,9 C 4,0 km/h (1 Bft) 0,00 %
18.04.2015 05:15 4,9 C 84 % 1018,3 hPa 0,0 l/m 0,0 km/h (0 Bft) N-NW 344 0 min 0,000 mm 0,0 UV-I 0 W/m 2,4 C 4,9 C 0,0 km/h (0 Bft) 0,00 %
18.04.2015 05:30 4,8 C 82 % 1018,5 hPa 0,0 l/m 0,0 km/h (0 Bft) S-SW 206 0 min 0,000 mm 0,0 UV-I 0 W/m 2,0 C 4,8 C 0,0 km/h (0 Bft) 0,00 %
18.04.2015 05:45 4,8 C 82 % 1018,8 hPa 0,0 l/m 0,0 km/h (0 Bft) W-SW 256 0 min 0,000 mm 0,0 UV-I 0 W/m 2,0 C 4,8 C 0,0 km/h (0 Bft) 0,00 %
18.04.2015 06:00 4,8 C 81 % 1018,9 hPa 0,0 l/m 0,0 km/h (0 Bft) NW 305 0 min 0,000 mm 0,0 UV-I 0 W/m 1,8 C 4,8 C 0,0 km/h (0 Bft) 0,00 %
18.04.2015 06:15 4,8 C 81 % 1019,0 hPa 0,0 l/m 0,0 km/h (0 Bft) SW 227 0 min 0,000 mm 0,0 UV-I 0 W/m 1,8 C 4,8 C 0,0 km/h (0 Bft) 0,00 %
18.04.2015 06:30 4,7 C 85 % 1019,3 hPa 0,0 l/m 0,0 km/h (0 Bft) S-SW 211 0 min 0,000 mm 0,0 UV-I 0 W/m 2,4 C 4,7 C 0,0 km/h (0 Bft) 0,00 %
18.04.2015 06:45 4,6 C 88 % 1019,6 hPa 0,0 l/m 0,0 km/h (0 Bft) S-SW 211 0 min 0,000 mm 0,0 UV-I 0 W/m 2,8 C 4,6 C 0,0 km/h (0 Bft) 0,00 %
18.04.2015 07:00 4,6 C 89 % 1019,6 hPa 0,0 l/m 0,0 km/h (0 Bft) S-SW 206 0 min 0,000 mm 0,0 UV-I 1 W/m 2,9 C 4,6 C 0,0 km/h (0 Bft) 0,00 %
18.04.2015 07:15 4,7 C 90 % 1019,8 hPa 0,0 l/m 0,0 km/h (0 Bft) S-SW 206 0 min 0,000 mm 0,0 UV-I 3 W/m 3,2 C 4,7 C 0,0 km/h (0 Bft) 0,00 %
18.04.2015 07:30 4,7 C 91 % 1019,8 hPa 0,0 l/m 0,0 km/h (0 Bft) S-SW 206 0 min 0,000 mm 0,0 UV-I 6 W/m 3,4 C 4,7 C 0,0 km/h (0 Bft) 0,00 %
18.04.2015 07:45 4,6 C 90 % 1020,2 hPa 0,0 l/m 0,0 km/h (0 Bft) SW 223 0 min 0,000 mm 0,0 UV-I 12 W/m 3,1 C 4,6 C 0,0 km/h (0 Bft) 0,00 %
18.04.2015 08:00 4,8 C 90 % 1020,2 hPa 0,0 l/m 0,0 km/h (0 Bft) S-SW 206 0 min 0,000 mm 0,0 UV-I 24 W/m 3,3 C 4,8 C 0,0 km/h (0 Bft) 0,00 %
18.04.2015 08:15 4,9 C 87 % 1020,2 hPa 0,0 l/m 0,0 km/h (0 Bft) S-SW 201 0 min 0,000 mm 1,0 UV-I 37 W/m 2,9 C 4,9 C 0,0 km/h (0 Bft) 0,00 %
18.04.2015 08:30 5,1 C 84 % 1020,3 hPa 0,0 l/m 0,0 km/h (0 Bft) SW 228 0 min 0,000 mm 1,0 UV-I 73 W/m 2,6 C 5,1 C 0,0 km/h (0 Bft) 0,00 %
18.04.2015 08:45 5,3 C 79 % 1020,5 hPa 0,0 l/m 0,0 km/h (0 Bft) S-SW 210 0 min 0,000 mm 1,0 UV-I 88 W/m 2,0 C 5,3 C 0,0 km/h (0 Bft) 0,00 %
18.04.2015 09:00 5,5 C 77 % 1020,5 hPa 0,0 l/m 0,0 km/h (0 Bft) S-SW 201 0 min 0,000 mm 1,0 UV-I 109 W/m 1,8 C 5,5 C 0,0 km/h (0 Bft) 0,00 %
18.04.2015 09:15 5,8 C 71 % 1020,8 hPa 0,0 l/m 0,0 km/h (0 Bft) SW 229 0 min 0,000 mm 1,0 UV-I 100 W/m 1,0 C 5,8 C 0,0 km/h (0 Bft) 0,00 %
18.04.2015 09:30 6,3 C 72 % 1020,7 hPa 0,0 l/m 0,0 km/h (0 Bft) W-SW 255 0 min 0,000 mm 2,0 UV-I 125 W/m 1,6 C 6,3 C 0,0 km/h (0 Bft) 0,00 %
18.04.2015 09:45 7,3 C 74 % 1020,8 hPa 0,0 l/m 0,0 km/h (0 Bft) W-SW 249 0 min 0,000 mm 3,0 UV-I 226 W/m 3,0 C 7,3 C 0,0 km/h (0 Bft) 0,00 %
18.04.2015 10:00 8,2 C 63 % 1020,6 hPa 0,0 l/m 0,7 km/h (0 Bft) N-NW 348 0 min 0,000 mm 3,0 UV-I 242 W/m 1,6 C 8,2 C 4,0 km/h (1 Bft) 0,00 %
18.04.2015 10:15 8,6 C 59 % 1020,6 hPa 0,0 l/m 0,4 km/h (0 Bft) W-SW 256 15 min 0,000 mm 3,0 UV-I 401 W/m 1,0 C 8,6 C 4,0 km/h (1 Bft) 0,00 %
18.04.2015 10:30 10,9 C 58 % 1020,4 hPa 0,0 l/m 0,0 km/h (0 Bft) SW 214 15 min 0,000 mm 3,0 UV-I 514 W/m 3,0 C 10,9 C 0,0 km/h (0 Bft) 0,00 %
18.04.2015 10:45 9,2 C 62 % 1020,7 hPa 0,0 l/m 0,0 km/h (0 Bft) S-SW 201 0 min 0,000 mm 1,0 UV-I 198 W/m 2,3 C 9,2 C 0,0 km/h (0 Bft) 0,00 %
18.04.2015 11:00 7,0 C 70 % 1021,4 hPa 0,3 l/m 1,4 km/h (1 Bft) S-SO 157 0 min 0,000 mm 1,0 UV-I 80 W/m 1,9 C 7,0 C 4,0 km/h (1 Bft) 0,00 %
18.04.2015 11:15 6,4 C 68 % 1021,5 hPa 0,0 l/m 15,5 km/h (3 Bft) W-NW 300 0 min 0,000 mm 1,0 UV-I 125 W/m 0,9 C 0,5 C 19,8 km/h (3 Bft) 0,00 %
18.04.2015 11:30 6,6 C 66 % 1021,6 hPa 0,0 l/m 0,0 km/h (0 Bft) W-SW 255 0 min 0,000 mm 2,0 UV-I 167 W/m 0,7 C 6,6 C 0,0 km/h (0 Bft) 0,00 %
18.04.2015 11:45 7,7 C 64 % 1021,7 hPa 0,0 l/m 0,0 km/h (0 Bft) S 171 0 min 0,000 mm 3,0 UV-I 201 W/m 1,3 C 7,7 C 0,0 km/h (0 Bft) 0,00 %
18.04.2015 12:00 8,0 C 65 % 1021,6 hPa 0,0 l/m 0,7 km/h (0 Bft) N-NW 336 0 min 0,000 mm 5,0 UV-I 312 W/m 1,8 C 8,0 C 4,0 km/h (1 Bft) 0,00 %
18.04.2015 12:15 8,9 C 63 % 1021,3 hPa 0,0 l/m 0,0 km/h (0 Bft) SO 135 15 min 0,000 mm 3,0 UV-I 621 W/m 2,2 C 8,9 C 0,0 km/h (0 Bft) 0,00 %
18.04.2015 12:30 9,0 C 59 % 1021,4 hPa 0,0 l/m 0,0 km/h (0 Bft) SW 218 0 min 0,000 mm 3,0 UV-I 366 W/m 1,4 C 9,0 C 0,0 km/h (0 Bft) 0,00 %
18.04.2015 12:45 9,1 C 57 % 1021,3 hPa 0,0 l/m 4,0 km/h (1 Bft) W-SW 251 15 min 0,000 mm 3,0 UV-I 524 W/m 1,0 C 9,1 C 7,9 km/h (2 Bft) 0,00 %
18.04.2015 13:00 9,1 C 56 % 1021,4 hPa 0,0 l/m 2,2 km/h (1 Bft) SW 234 0 min 0,000 mm 3,0 UV-I 272 W/m 0,8 C 9,1 C 7,9 km/h (2 Bft) 0,00 %
18.04.2015 13:15 9,4 C 53 % 1021,5 hPa 0,0 l/m 0,7 km/h (0 Bft) SW 232 0 min 0,000 mm 3,0 UV-I 296 W/m 0,3 C 9,4 C 4,0 km/h (1 Bft) 0,00 %
18.04.2015 13:30 10,2 C 59 % 1021,4 hPa 0,0 l/m 1,4 km/h (1 Bft) S-SW 196 15 min 0,000 mm 5,0 UV-I 771 W/m 2,6 C 10,2 C 4,0 km/h (1 Bft) 0,00 %
18.04.2015 13:45 11,0 C 51 % 1021,4 hPa 0,0 l/m 7,2 km/h (2 Bft) W-NW 284 15 min 0,000 mm 6,0 UV-I 839 W/m 1,3 C 10,4 C 11,9 km/h (2 Bft) 0,00 %
18.04.2015 14:00 10,8 C 51 % 1021,3 hPa 0,0 l/m 2,2 km/h (1 Bft) S-SW 212 15 min 0,000 mm 5,0 UV-I 477 W/m 1,1 C 10,8 C 4,0 km/h (1 Bft) 0,00 %
18.04.2015 14:15 11,0 C 49 % 1021,6 hPa 0,0 l/m 4,3 km/h (1 Bft) W-SW 254 15 min 0,000 mm 4,0 UV-I 706 W/m 0,7 C 11,0 C 7,9 km/h (2 Bft) 0,00 %
18.04.2015 14:30 10,9 C 49 % 1021,6 hPa 0,0 l/m 5,4 km/h (1 Bft) W 259 15 min 0,000 mm 3,0 UV-I 806 W/m 0,6 C 10,9 C 7,9 km/h (2 Bft) 0,00 %
18.04.2015 14:45 10,5 C 59 % 1021,6 hPa 0,0 l/m 0,0 km/h (0 Bft) S 178 0 min 0,000 mm 2,0 UV-I 400 W/m 2,8 C 10,5 C 0,0 km/h (0 Bft) 0,00 %
18.04.2015 15:00 9,4 C 60 % 1021,9 hPa 0,0 l/m 6,5 km/h (2 Bft) W-SW 256 0 min 0,000 mm 3,0 UV-I 361 W/m 2,0 C 9,4 C 7,9 km/h (2 Bft) 0,00 %
18.04.2015 15:15 9,1 C 54 % 1021,7 hPa 0,0 l/m 11,9 km/h (2 Bft) W-SW 256 15 min 0,000 mm 2,0 UV-I 436 W/m 0,3 C 5,5 C 15,8 km/h (3 Bft) 0,00 %
18.04.2015 15:30 9,1 C 54 % 1021,7 hPa 0,0 l/m 0,0 km/h (0 Bft) NW 308 0 min 0,000 mm 2,0 UV-I 219 W/m 0,3 C 9,1 C 0,0 km/h (0 Bft) 0,00 %
18.04.2015 15:45 9,6 C 50 % 1021,5 hPa 0,0 l/m 2,2 km/h (1 Bft) S 173 15 min 0,000 mm 2,0 UV-I 694 W/m -0,3 C 9,6 C 4,0 km/h (1 Bft) 0,00 %
18.04.2015 16:00 10,4 C 48 % 1021,4 hPa 0,0 l/m 0,0 km/h (0 Bft) S-SW 196 15 min 0,000 mm 2,0 UV-I 753 W/m -0,1 C 10,4 C 0,0 km/h (0 Bft) 0,00 %
18.04.2015 16:15 9,3 C 62 % 1021,8 hPa 0,0 l/m 7,2 km/h (2 Bft) W-SW 256 0 min 0,000 mm 1,0 UV-I 104 W/m 2,4 C 8,7 C 7,9 km/h (2 Bft) 0,00 %
18.04.2015 16:30 8,0 C 62 % 1022,3 hPa 0,0 l/m 0,0 km/h (0 Bft) W-SW 252 0 min 0,000 mm 1,0 UV-I 82 W/m 1,2 C 8,0 C 0,0 km/h (0 Bft) 0,00 %
18.04.2015 16:45 8,0 C 65 % 1022,5 hPa 0,0 l/m 0,4 km/h (0 Bft) W-SW 251 0 min 0,000 mm 2,0 UV-I 138 W/m 1,8 C 8,0 C 4,0 km/h (1 Bft) 0,00 %
18.04.2015 17:00 7,2 C 62 % 1022,2 hPa 0,0 l/m 10,8 km/h (2 Bft) W-SW 252 0 min 0,000 mm 1,0 UV-I 107 W/m 0,4 C 4,0 C 15,8 km/h (3 Bft) 0,00 %
18.04.2015 17:15 6,9 C 64 % 1022,3 hPa 0,0 l/m 0,4 km/h (0 Bft) S-SW 207 15 min 0,000 mm 2,0 UV-I 485 W/m 0,6 C 6,9 C 4,0 km/h (1 Bft) 0,00 %
18.04.2015 17:30 8,4 C 62 % 1021,9 hPa 0,0 l/m 0,0 km/h (0 Bft) S 188 0 min 0,000 mm 1,0 UV-I 129 W/m 1,6 C 8,4 C 0,0 km/h (0 Bft) 0,00 %
18.04.2015 17:45 7,8 C 61 % 1021,9 hPa 0,0 l/m 0,0 km/h (0 Bft) S 183 15 min 0,000 mm 1,0 UV-I 482 W/m 0,8 C 7,8 C 0,0 km/h (0 Bft) 0,00 %
18.04.2015 18:00 9,3 C 53 % 1021,7 hPa 0,0 l/m 0,0 km/h (0 Bft) S-SW 207 15 min 0,000 mm 1,0 UV-I 464 W/m 0,2 C 9,3 C 0,0 km/h (0 Bft) 0,00 %
18.04.2015 18:15 10,1 C 50 % 1021,7 hPa 0,0 l/m 0,0 km/h (0 Bft) SW 219 15 min 0,000 mm 1,0 UV-I 418 W/m 0,2 C 10,1 C 0,0 km/h (0 Bft) 0,00 %
18.04.2015 18:30 9,9 C 51 % 1021,8 hPa 0,0 l/m 0,0 km/h (0 Bft) S 177 15 min 0,000 mm 1,0 UV-I 347 W/m 0,2 C 9,9 C 0,0 km/h (0 Bft) 0,00 %
18.04.2015 18:45 9,1 C 53 % 1022,0 hPa 0,0 l/m 2,2 km/h (1 Bft) W 273 15 min 0,000 mm 1,0 UV-I 249 W/m 0,0 C 9,1 C 4,0 km/h (1 Bft) 0,00 %
18.04.2015 19:00 8,5 C 58 % 1022,1 hPa 0,0 l/m 0,0 km/h (0 Bft) S 182 0 min 0,000 mm 0,0 UV-I 46 W/m 0,7 C 8,5 C 0,0 km/h (0 Bft) 0,00 %
18.04.2015 19:15 7,6 C 63 % 1022,4 hPa 0,0 l/m 0,0 km/h (0 Bft) SW 216 0 min 0,000 mm 0,0 UV-I 47 W/m 1,0 C 7,6 C 0,0 km/h (0 Bft) 0,00 %
18.04.2015 19:30 7,0 C 67 % 1022,7 hPa 0,0 l/m 0,4 km/h (0 Bft) S-SW 205 0 min 0,000 mm 0,0 UV-I 6 W/m 1,3 C 7,0 C 4,0 km/h (1 Bft) 0,00 %
18.04.2015 19:45 6,5 C 71 % 1023,1 hPa 0,0 l/m 0,0 km/h (0 Bft) SW 215 0 min 0,000 mm 0,0 UV-I 0 W/m 1,6 C 6,5 C 0,0 km/h (0 Bft) 0,00 %
18.04.2015 20:00 6,2 C 72 % 1023,0 hPa 0,0 l/m 0,0 km/h (0 Bft) W-SW 256 0 min 0,000 mm 0,0 UV-I 0 W/m 1,5 C 6,2 C 0,0 km/h (0 Bft) 0,00 %
18.04.2015 20:15 6,2 C 74 % 1023,2 hPa 0,0 l/m 0,0 km/h (0 Bft) S 187 0 min 0,000 mm 0,0 UV-I 0 W/m 1,9 C 6,2 C 0,0 km/h (0 Bft) 0,00 %
18.04.2015 20:30 6,1 C 76 % 1023,5 hPa 0,0 l/m 0,0 km/h (0 Bft) SW 228 0 min 0,000 mm 0,0 UV-I 0 W/m 2,2 C 6,1 C 0,0 km/h (0 Bft) 0,00 %
18.04.2015 20:45 5,9 C 79 % 1023,6 hPa 0,0 l/m 0,0 km/h (0 Bft) SW 227 0 min 0,000 mm 0,0 UV-I 0 W/m 2,5 C 5,9 C 0,0 km/h (0 Bft) 0,00 %
18.04.2015 21:00 5,7 C 81 % 1024,2 hPa 0,0 l/m 4,7 km/h (1 Bft) O-SO 115 0 min 0,000 mm 0,0 UV-I 0 W/m 2,7 C 5,7 C 7,9 km/h (2 Bft) 0,00 %
18.04.2015 21:15 5,7 C 81 % 1024,2 hPa 0,0 l/m 0,0 km/h (0 Bft) S 188 0 min 0,000 mm 0,0 UV-I 0 W/m 2,7 C 5,7 C 0,0 km/h (0 Bft) 0,00 %
18.04.2015 21:30 5,6 C 81 % 1024,3 hPa 0,0 l/m 0,0 km/h (0 Bft) S-SW 198 0 min 0,000 mm 0,0 UV-I 0 W/m 2,6 C 5,6 C 0,0 km/h (0 Bft) 0,00 %
18.04.2015 21:45 5,5 C 82 % 1024,2 hPa 0,0 l/m 0,0 km/h (0 Bft) SW 228 0 min 0,000 mm 0,0 UV-I 0 W/m 2,7 C 5,5 C 0,0 km/h (0 Bft) 0,00 %
18.04.2015 22:00 5,5 C 81 % 1024,3 hPa 0,0 l/m 0,0 km/h (0 Bft) S 189 0 min 0,000 mm 0,0 UV-I 0 W/m 2,5 C 5,5 C 0,0 km/h (0 Bft) 0,00 %
18.04.2015 22:15 5,6 C 75 % 1024,2 hPa 0,0 l/m 0,0 km/h (0 Bft) S 186 0 min 0,000 mm 0,0 UV-I 0 W/m 1,5 C 5,6 C 0,0 km/h (0 Bft) 0,00 %
18.04.2015 22:30 5,5 C 73 % 1024,3 hPa 0,0 l/m 0,0 km/h (0 Bft) S 176 0 min 0,000 mm 0,0 UV-I 0 W/m 1,1 C 5,5 C 0,0 km/h (0 Bft) 0,00 %
18.04.2015 22:45 5,3 C 64 % 1024,1 hPa 0,0 l/m 0,0 km/h (0 Bft) S 169 0 min 0,000 mm 0,0 UV-I 0 W/m -0,9 C 5,3 C 0,0 km/h (0 Bft) 0,00 %
18.04.2015 23:00 5,2 C 66 % 1024,1 hPa 0,0 l/m 0,0 km/h (0 Bft) S 174 0 min 0,000 mm 0,0 UV-I 0 W/m -0,6 C 5,2 C 0,0 km/h (0 Bft) 0,00 %
18.04.2015 23:15 5,1 C 68 % 1024,2 hPa 0,0 l/m 0,0 km/h (0 Bft) S 172 0 min 0,000 mm 0,0 UV-I 0 W/m -0,3 C 5,1 C 0,0 km/h (0 Bft) 0,00 %
18.04.2015 23:30 5,0 C 73 % 1024,3 hPa 0,0 l/m 0,0 km/h (0 Bft) S 182 0 min 0,000 mm 0,0 UV-I 0 W/m 0,6 C 5,0 C 0,0 km/h (0 Bft) 0,00 %
_ Min-Zeit 06:45 16:00 00:00 - 00:00 - - - - - - 22:45 11:15 00:00 00:00
Minimum _ 4,6 C 48 % 1015,9 hPa - 0,0 km/h (0 Bft) - - - - - - -0,9 C 0,5 C 0,0 km/h (0 Bft) 0,00 %
_ Max-Zeit 13:45 02:00 21:30 00:00 11:15 - - 10:15 00:00 13:45 13:45 00:00 14:15 11:15 00:00
Maximum _ 11,0 C 98 % 1024,3 hPa 0,3 l/m 15,5 km/h
W-NW (3 Bft)
- - 15 min 0,000 mm 6,0 UV-I 839 W/m 6,8 C 11,0 C 19,8 km/h
W-NW (3 Bft)
0,00 %
Durchschnitt _ 7,0 C 74 % 1020,7 hPa #0,9 l/m 1,0 km/h (0 Bft) W-SW - #4:30 h #0,000 mm 2,2 UV-I 288 W/m 2,4 C 6,8 C 1,9 km/h (1 Bft) 0,00 %